Date String (YYYY-MM-DD hh:mm:ss) UTC,Instrument flags,absolute air pressure of the measurement (hPa),sample flow rate (lpm),inlet stack bypass flow (lpm),air temperature of the measurement (°C),ambient temperature measured by the external sensor (°C),aerosol sample conditioner tube jacket temperature (°C),OPC LED temperature (°C),internal box temperature (°C),relative humidity of the measurement (%),span deviation,mass concentration of particles derived from Lorenz-Mie calculation of OPC scattering (μg/m³),mass concentration of particles derived from Lorenz-Mie calculation of OPC scattering (μg/m³),mass concentration of particles derived from Lorenz-Mie calculation of OPC scattering (μg/m³)
DateTimeUTC,F1_M11,P_M11,Q1_M11,Q2_M11,T1_M11,T2_M11,T3_M11,T4_M11,T5_M11,U1_M11,ZSPAN_M11,X0_M11,X2_M11,X1_M11
2024-04-14 09:00:00,SystemResetWarning,0827.9,5.00,000.00,025.8,025.0,000.0,034.3,027.6,011.9,0000.0,0015.02,0004.29,0002.83
2024-04-14 09:01:00,SystemResetWarning,0827.9,5.00,000.00,025.8,025.0,000.0,034.3,027.6,011.9,0000.0,0014.46,0004.30,0002.81
2024-04-14 09:02:00,SystemResetWarning,0827.9,5.00,000.00,025.8,025.0,000.0,034.3,027.5,011.9,0000.0,0014.24,0004.32,0002.78
2024-04-14 09:03:00,SystemResetWarning,0827.9,5.00,000.00,025.8,025.0,000.0,034.3,027.5,011.9,0000.0,0014.23,0004.36,0002.76
2024-04-14 09:04:00,SystemResetWarning,0827.9,4.99,000.00,025.8,025.0,000.0,034.3,027.5,012.0,0000.0,0014.80,0004.40,0002.76
2024-04-14 09:05:00,SystemResetWarning,0827.9,5.02,000.00,025.8,025.0,000.0,034.2,027.5,012.0,0000.0,0014.61,0004.40,0002.77
2024-04-14 09:06:00,SystemResetWarning,0827.9,5.00,000.00,025.8,025.0,000.0,034.2,027.5,012.0,0000.0,0014.25,0004.48,0002.78
2024-04-14 09:07:00,SystemResetWarning,0827.9,4.98,000.00,025.8,025.0,000.0,034.2,027.5,012.0,0000.0,0013.96,0004.52,0002.77
2024-04-14 09:08:00,SystemResetWarning,0827.9,4.99,000.00,025.8,024.9,000.0,034.2,027.5,012.0,0000.0,0013.89,0004.48,0002.75
2024-04-14 09:09:00,SystemResetWarning,0827.8,5.00,000.00,025.7,025.0,000.0,034.2,027.5,012.0,0000.0,0014.03,0004.45,0002.74
2024-04-14 09:10:00,SystemResetWarning,0827.8,5.01,000.00,025.7,025.0,000.0,034.2,027.5,012.0,0000.0,0014.20,0004.39,0002.73
2024-04-14 09:11:00,SystemResetWarning,0827.9,4.99,000.00,025.7,024.9,000.0,034.2,027.5,012.0,0000.0,0013.35,0004.36,0002.72
2024-04-14 09:12:00,SystemResetWarning,0827.9,4.99,000.00,025.7,024.9,000.0,034.2,027.5,012.0,0000.0,0013.47,0004.35,0002.74
2024-04-14 09:13:00,SystemResetWarning,0827.9,5.00,000.00,025.7,024.9,000.0,034.2,027.5,012.0,0000.0,0013.27,0004.36,0002.77
2024-04-14 09:14:00,SystemResetWarning,0827.8,5.00,000.00,025.7,024.9,000.0,034.2,027.5,012.0,0000.0,0013.02,0004.27,0002.77
2024-04-14 09:15:00,SystemResetWarning,0827.8,5.00,000.00,025.7,024.9,000.0,034.2,027.5,012.0,0000.0,0011.90,0004.19,0002.77
2024-04-14 09:16:00,SystemResetWarning,0827.8,5.01,000.00,025.7,024.9,000.0,034.2,027.5,012.0,0000.0,0011.72,0004.21,0002.76
2024-04-14 09:17:00,SystemResetWarning,0827.8,5.00,000.00,025.7,024.9,000.0,034.2,027.5,012.0,0000.0,0012.50,0004.16,0002.75
2024-04-14 09:18:00,SystemResetWarning,0827.8,5.00,000.00,025.7,024.9,000.0,034.2,027.5,012.0,0000.0,0012.41,0004.10,0002.73
2024-04-14 09:19:00,SystemResetWarning,0827.8,5.00,000.00,025.7,024.9,000.0,034.2,027.5,012.0,0000.0,0012.68,0004.12,0002.76
2024-04-14 09:20:00,SystemResetWarning,0827.8,5.00,000.00,025.7,024.9,000.0,034.2,027.5,011.9,0000.0,0012.62,0004.15,0002.77
2024-04-14 09:21:00,SystemResetWarning,0827.8,5.01,000.00,025.7,025.0,000.0,034.2,027.5,012.0,0000.0,0011.98,0004.19,0002.78
2024-04-14 09:22:00,SystemResetWarning,0827.8,5.00,000.00,025.7,024.9,000.0,034.2,027.5,012.0,0000.0,0012.63,0004.23,0002.80
2024-04-14 09:23:00,SystemResetWarning,0827.8,5.00,000.00,025.7,024.9,000.0,034.1,027.5,012.0,0000.0,0012.97,0004.25,0002.79
2024-04-14 09:24:00,SystemResetWarning,0827.8,5.00,000.00,025.7,024.9,000.0,034.1,027.5,011.9,0000.0,0012.92,0004.18,0002.78
2024-04-14 09:25:00,SystemResetWarning,0827.9,4.99,000.00,025.7,024.9,000.0,034.1,027.5,012.0,0000.0,0013.53,0004.21,0002.78
2024-04-14 09:26:00,SystemResetWarning,0827.8,5.00,000.00,025.7,024.9,000.0,034.1,027.5,012.0,0000.0,0013.69,0004.23,0002.78
2024-04-14 09:27:00,SystemResetWarning,0827.9,5.00,000.00,025.7,024.9,000.0,034.1,027.5,011.9,0000.0,0013.77,0004.23,0002.78
2024-04-14 09:28:00,SystemResetWarning,0827.8,5.00,000.00,025.7,024.9,000.0,034.1,027.5,011.9,0000.0,0013.53,0004.24,0002.78
2024-04-14 09:29:00,SystemResetWarning,0827.9,5.00,000.00,025.7,024.9,000.0,034.1,027.5,011.9,0000.0,0013.76,0004.26,0002.77
2024-04-14 09:30:00,SystemResetWarning,0827.9,5.00,000.00,025.7,024.9,000.0,034.1,027.5,012.0,0000.0,0013.57,0004.24,0002.75
2024-04-14 09:31:00,SystemResetWarning,0827.8,5.01,000.00,025.7,024.9,000.0,034.1,027.5,011.9,0000.0,0014.00,0004.25,0002.74
2024-04-14 09:32:00,SystemResetWarning,0827.8,5.00,000.00,025.7,024.9,000.0,034.1,027.5,011.9,0000.0,0014.35,0004.28,0002.76
2024-04-14 09:33:00,SystemResetWarning,0827.9,5.00,000.00,025.7,024.9,000.0,034.1,027.5,011.8,0000.0,0014.35,0004.29,0002.76
2024-04-14 09:34:00,SystemResetWarning,0827.8,5.00,000.00,025.7,024.9,000.0,034.1,027.5,011.8,0000.0,0013.24,0004.31,0002.75
2024-04-14 09:35:00,SystemResetWarning,0827.8,5.01,000.00,025.7,024.9,000.0,034.1,027.5,011.9,0000.0,0012.76,0004.32,0002.75
2024-04-14 09:36:00,SystemResetWarning,0827.8,4.99,000.00,025.7,024.9,000.0,034.1,027.5,011.9,0000.0,0012.60,0004.30,0002.73
2024-04-14 09:37:00,SystemResetWarning,0827.8,4.99,000.00,025.7,024.9,000.0,034.1,027.5,011.9,0000.0,0012.30,0004.28,0002.72
2024-04-14 09:38:00,SystemResetWarning,0828.0,5.00,000.00,025.7,024.9,000.0,034.1,027.5,011.9,0000.0,0012.26,0004.25,0002.72
2024-04-14 09:39:00,SystemResetWarning,0827.8,5.01,000.00,025.7,024.9,000.0,034.1,027.5,011.8,0000.0,0011.78,0004.24,0002.72
2024-04-14 09:40:00,SystemResetWarning,0827.8,5.01,000.00,025.7,024.9,000.0,034.1,027.5,011.8,0000.0,0011.39,0004.28,0002.71
2024-04-14 09:41:00,SystemResetWarning,0827.9,4.98,000.00,025.7,024.9,000.0,034.1,027.5,011.7,0000.0,0011.33,0004.31,0002.72
2024-04-14 09:42:00,SystemResetWarning,0827.9,4.99,000.00,025.7,024.9,000.0,034.1,027.5,011.7,0000.0,0011.45,0004.30,0002.72
2024-04-14 09:43:00,SystemResetWarning,0827.8,5.00,000.00,025.7,024.9,000.0,034.1,027.4,011.7,0000.0,0011.23,0004.32,0002.69
2024-04-14 09:44:00,SystemResetWarning,0827.8,5.01,000.00,025.7,024.9,000.0,034.1,027.5,011.7,0000.0,0011.44,0004.32,0002.69
2024-04-14 09:45:00,SystemResetWarning,0827.8,5.00,000.00,025.7,024.9,000.0,034.1,027.5,011.7,0000.0,0011.19,0004.26,0002.68
2024-04-14 09:46:00,SystemResetWarning,0827.8,5.01,000.00,025.7,024.9,000.0,034.1,027.5,011.7,0000.0,0011.11,0004.22,0002.67
2024-04-14 09:47:00,SystemResetWarning,0827.7,4.99,000.00,025.7,024.9,000.0,034.1,027.4,011.7,0000.0,0010.58,0004.22,0002.67
2024-04-14 09:48:00,SystemResetWarning,0827.8,4.99,000.00,025.7,024.9,000.0,034.1,027.4,011.7,0000.0,0010.91,0004.23,0002.67
2024-04-14 09:49:00,SystemResetWarning,0827.8,4.99,000.00,025.7,024.9,000.0,034.1,027.4,011.8,0000.0,0011.22,0004.26,0002.66
2024-04-14 09:50:00,SystemResetWarning,0827.8,5.00,000.00,025.7,024.9,000.0,034.1,027.4,011.8,0000.0,0012.26,0004.28,0002.67
2024-04-14 09:51:00,SystemResetWarning,0827.8,5.01,000.00,025.6,024.9,000.0,034.1,027.4,011.8,0000.0,0013.02,0004.22,0002.67
2024-04-14 09:52:00,SystemResetWarning,0827.8,5.00,000.00,025.6,024.9,000.0,034.1,027.4,011.8,0000.0,0013.08,0004.22,0002.67
2024-04-14 09:53:00,SystemResetWarning,0827.8,4.99,000.00,025.6,024.9,000.0,034.1,027.4,011.7,0000.0,0012.88,0004.20,0002.64
2024-04-14 09:54:00,SystemResetWarning,0827.8,5.00,000.00,025.6,024.9,000.0,034.1,027.4,011.7,0000.0,0012.46,0004.15,0002.63
2024-04-14 09:55:00,SystemResetWarning,0827.9,4.99,000.00,025.6,024.9,000.0,034.1,027.4,011.7,0000.0,0012.30,0004.10,0002.60
2024-04-14 09:56:00,SystemResetWarning,0827.9,5.00,000.00,025.6,024.9,000.0,034.1,027.4,011.7,0000.0,0012.80,0004.11,0002.61
2024-04-14 09:57:00,SystemResetWarning,0827.8,5.00,000.00,025.6,024.9,000.0,034.1,027.4,011.7,0000.0,0013.03,0004.13,0002.61
2024-04-14 09:58:00,SystemResetWarning,0827.7,5.01,000.00,025.6,024.8,000.0,034.1,027.4,011.7,0000.0,0013.31,0004.12,0002.61
2024-04-14 09:59:00,SystemResetWarning,0827.7,5.01,000.00,025.6,024.8,000.0,034.1,027.4,011.7,0000.0,0013.18,0004.08,0002.59
